Weather History for Lincolnton, NC

Change the Weather History Date:

Tuesday, September 18, 2012

  Actual Average (KCLT) Record (KCLT)
Temperature  
Mean Temperature 68 °F 70 °F  
Max Temperature 73 °F 81 °F 99 °F (1896)
Min Temperature 64 °F 60 °F 48 °F (1999)
Degree Days  
Heating Degree Days 0 1  
Month to date heating degree days 3  
Since 1 July heating degree days 3  
Cooling Degree Days 4 6  
Month to date cooling degree days 147  
Year to date cooling degree days 1424  
Growing Degree Days 18 (Base 50)    
Moisture  
Dew Point 67 °F    
Average Humidity 93    
Maximum Humidity 100    
Minimum Humidity 83    
Precipitation  
Precipitation 0.18 in 0.11 in 4.84 in (1928)
Month to date precipitation 1.93  
Year to date precipitation 30.53  
Snow  
Snow 0.00 in 0.00 in 0.00 in ()
Month to date snowfall 0.0  
Since 1 July snowfall 0.0  
Since 1 September snowfall 0.0  
Snow Depth -    
Sea Level Pressure  
Sea Level Pressure 29.78 in    
Wind  
Wind Speed 5 mph (SW)    
Max Wind Speed 10 mph    
Max Gust Speed 20 mph    
Visibility 8 miles    
Events Fog , Rain    
T = Trace of Precipitation, MM = Missing Value Source: NWS Daily Summary

Daily Weather History Graph

Daily Weather History Graph

Search for Another Location

Airport:

Trip Planner

Search our weather history database for the weather conditions in past years. The results will help you decide how hot, cold, wet, or windy it might be!

Date:

Astronomy

Sep. 18, 2012 Rise Set
Actual Time 7:09 AM EDT 7:26 PM EDT
Civil Twilight 6:44 AM EDT 7:52 PM EDT
Nautical Twilight 6:14 AM EDT 8:21 PM EDT
Astronomical Twilight 5:44 AM EDT 8:52 PM EDT
Moon 9:59 AM EDT (9/18) 8:58 PM EDT (9/18)
Length of Visible Light 13h 07m
Length of Day
12h 16m
Waxing Crescent, 9% of the Moon is Illuminated
Sep 18
Waxing Crescent
Sep 22
First Quarter
Sep 29
Full
Oct 8
Last Quarter
Oct 15
New

Hourly Weather History & Observations

Time (EDT) Temp. Dew Point Humidity Pressure Visibility Wind Dir Wind Speed Gust Speed Precip Events Conditions
12:55 AM 69.8 °F 68.0 °F 94% 29.90 in 10.0 mi SE 4.6 mph - N/A   Mostly Cloudy
8:15 AM 69.8 °F 69.8 °F 100% 29.76 in 10.0 mi SSW 5.8 mph - N/A Rain Light Rain
8:35 AM 71.6 °F 69.8 °F 94% 29.76 in 10.0 mi SSW 9.2 mph - N/A   Overcast
8:55 AM 71.6 °F 69.8 °F 94% 29.76 in 10.0 mi SSW 8.1 mph 17.3 mph N/A   Overcast
9:55 AM 71.6 °F 68.0 °F 88% 29.76 in 10.0 mi SSW 8.1 mph 18.4 mph N/A   Overcast
10:15 AM 71.6 °F 69.8 °F 94% 29.76 in 10.0 mi SSW 6.9 mph - N/A   Overcast
10:35 AM 71.6 °F 69.8 °F 94% 29.76 in 10.0 mi South 6.9 mph - N/A   Overcast
10:55 AM 71.6 °F 69.8 °F 94% 29.76 in 10.0 mi South 5.8 mph - N/A   Overcast
11:15 AM 71.6 °F 69.8 °F 94% 29.76 in 10.0 mi South 9.2 mph - N/A Rain Rain
12:15 PM 71.6 °F 69.8 °F 94% 29.76 in 5.0 mi SSW 6.9 mph - 0.02 in Rain Light Rain
12:35 PM 71.6 °F 69.8 °F 94% 29.76 in 10.0 mi SSW 6.9 mph - 0.02 in   Overcast
12:55 PM 71.6 °F 69.8 °F 94% 29.78 in 10.0 mi WSW 8.1 mph - 0.04 in Rain Light Rain
1:15 PM 71.6 °F 69.8 °F 94% 29.77 in 5.0 mi SW 10.4 mph 19.6 mph 0.04 in Rain Rain
1:35 PM 69.8 °F 64.4 °F 83% 29.78 in 10.0 mi West 9.2 mph 16.1 mph 0.05 in Rain Light Rain
1:55 PM 68.0 °F 64.4 °F 88% 29.77 in 5.0 mi SW 6.9 mph - 0.09 in Rain Light Rain
2:15 PM 68.0 °F 64.4 °F 88% 29.76 in 7.0 mi WSW 8.1 mph - N/A   Drizzle
2:35 PM 69.8 °F 66.2 °F 88% 29.75 in 10.0 mi WSW 10.4 mph - 0.01 in   Mostly Cloudy
2:55 PM 69.8 °F 66.2 °F 88% 29.76 in 10.0 mi SW 10.4 mph - 0.01 in   Mostly Cloudy
3:15 PM 69.8 °F 66.2 °F 88% 29.74 in 10.0 mi SW 6.9 mph - N/A   Mostly Cloudy
3:35 PM 69.8 °F 68.0 °F 94% 29.76 in 10.0 mi SW 5.8 mph - N/A   Mostly Cloudy
3:55 PM 71.6 °F 68.0 °F 88% 29.75 in 10.0 mi West 5.8 mph - N/A   Mostly Cloudy
4:15 PM 73.4 °F 68.0 °F 83% 29.74 in 10.0 mi WSW 5.8 mph - N/A   Mostly Cloudy
4:35 PM 73.4 °F 68.0 °F 83% 29.74 in 10.0 mi West 4.6 mph - N/A   Mostly Cloudy
4:55 PM 73.4 °F 68.0 °F 83% 29.74 in 10.0 mi Calm Calm - N/A   Overcast
5:15 PM 71.6 °F 68.0 °F 88% 29.75 in 7.0 mi Calm Calm - 0.01 in Rain Rain
5:35 PM 71.6 °F 69.8 °F 94% 29.74 in 4.0 mi Calm Calm - N/A Rain Rain
5:55 PM 71.6 °F 69.8 °F 94% 29.74 in 10.0 mi Calm Calm - 0.04 in   Scattered Clouds
6:15 PM 71.6 °F 69.8 °F 94% 29.75 in 10.0 mi Calm Calm - N/A   Scattered Clouds
6:35 PM 71.6 °F 69.8 °F 94% 29.76 in 10.0 mi Calm Calm - N/A   Scattered Clouds
6:55 PM 71.6 °F 69.8 °F 94% 29.76 in 10.0 mi West 3.5 mph - N/A   Mostly Cloudy
7:15 PM 69.8 °F 68.0 °F 94% 29.77 in 10.0 mi West 3.5 mph - N/A   Overcast
7:35 PM 69.8 °F 68.0 °F 94% 29.78 in 10.0 mi Calm Calm - N/A   Overcast
7:55 PM 69.8 °F 68.0 °F 94% 29.79 in 10.0 mi Calm Calm - N/A   Overcast
8:15 PM 69.8 °F 68.0 °F 94% 29.79 in 10.0 mi Calm Calm - N/A   Overcast
8:35 PM 68.0 °F 68.0 °F 100% 29.80 in 10.0 mi Calm Calm - N/A   Scattered Clouds
8:55 PM 68.0 °F 66.2 °F 94% 29.80 in 7.0 mi Calm Calm - N/A   Clear
9:15 PM 66.2 °F 64.4 °F 94% 29.81 in 0.5 mi Calm Calm - N/A Fog Fog
9:35 PM 64.4 °F 64.4 °F 100% 29.82 in 0.5 mi Calm Calm - N/A Fog Fog
9:55 PM 66.2 °F 64.4 °F 94% 29.83 in 0.5 mi Calm Calm - N/A Fog Fog
10:15 PM 64.4 °F 64.4 °F 100% 29.84 in 10.0 mi Calm Calm - N/A   Clear
10:35 PM 64.4 °F 64.4 °F 100% 29.83 in 10.0 mi Calm Calm - N/A   Scattered Clouds
10:55 PM 64.4 °F 64.4 °F 100% 29.83 in 10.0 mi Calm Calm - N/A   Clear
11:15 PM 64.4 °F 62.6 °F 94% 29.85 in 3.0 mi Calm Calm - N/A   Scattered Clouds
11:35 PM 64.4 °F 64.4 °F 100% 29.86 in 10.0 mi Calm Calm - N/A   Clear
11:55 PM 64.4 °F 62.6 °F 94% 29.87 in 10.0 mi Calm Calm - N/A   Clear